Vorticity
9 7 9 8 8 9 7 10 10 8 9 11 11 11 15 21 18 18 18 5 -1 2 7 10 6 2 1 1 0 1 -8 -12 -2 7 7 4 17 23 15 10 9 9 3 3 5 5 8 8 5 5 4 2 3 3 4 4 4 4 4 5 5 5 5 5 5 5 6 6 7 5 5 5 2 -1 -4 -1 1 2 4 9 10 8 8 8 8 7 6 5 4 5 5 5 6 6 6 7 7
8 8 8 8 9 8 8 10 11 8 10 14 15 15 16 17 8 6 11 6 -2 -3 4 9 9 7 1 -6 0 4 -4 3 6 7 0 -5 13 14 15 16 11 12 6 4 2 6 7 7 8 6 7 4 5 3 3 4 4 5 3 5 6 8 7 5 6 6 8 7 7 6 7 6 5 4 2 2 2 2 3 4 5 7 7 6 5 4 3 4 4 4 5 5 6 6 7 7 6
8 9 8 9 8 7 9 9 11 10 8 11 13 16 14 7 -1 -0 9 13 6 3 9 11 8 2 8 6 1 4 1 3 -1 5 4 -1 2 -6 11 26 33 25 3 7 3 6 10 5 5 3 7 7 7 6 5 5 5 8 5 6 7 9 9 7 7 6 9 8 8 8 9 8 5 6 6 5 3 2 3 4 4 5 2 -1 -2 -2 -1 1 4 4 5 5 6 7 6 6 6
7 8 8 9 7 9 9 8 13 11 11 13 10 14 10 -6 -10 3 7 7 7 5 8 9 7 4 15 21 13 12 7 3 -1 3 2 6 5 -2 7 3 40 41 -14 1 11 5 12 10 6 -1 4 6 8 7 6 8 6 7 6 8 8 9 11 9 10 9 9 10 11 10 10 10 8 6 8 8 5 4 6 6 5 5 4 6 6 5 3 1 3 4 5 6 6 6 6 6 6
8 8 9 9 7 8 7 9 11 9 18 17 9 14 15 -3 -19 -5 4 4 4 -2 5 3 2 7 1 0 11 20 17 11 11 9 3 9 -0 -1 14 -18 7 34 -13 -6 13 7 11 15 12 3 6 7 7 9 8 8 6 7 7 6 6 9 10 10 12 12 8 10 13 14 14 12 12 9 11 12 8 7 7 4 1 2 4 6 6 5 5 3 3 4 6 6 7 7 7 6 6
8 8 9 9 9 8 9 10 8 10 19 16 10 7 11 11 -12 -9 13 19 12 3 7 -0 -5 2 -9 -14 -5 4 9 8 11 13 4 8 -5 -8 25 4 -10 17 8 6 12 7 7 9 9 8 7 8 8 9 10 8 8 9 8 6 6 6 5 8 9 8 6 9 13 17 19 16 15 12 11 12 10 6 4 1 -0 -0 -0 0 2 4 5 5 5 4 5 6 7 7 6 6 6
8 8 8 9 9 8 10 10 13 16 20 19 10 1 -3 5 1 -2 12 16 7 1 1 1 3 1 -5 -5 -7 -4 7 4 2 10 10 11 6 -1 13 14 3 7 10 17 16 -1 4 8 2 8 6 7 10 9 11 10 10 8 10 10 7 6 3 5 7 10 9 8 14 15 17 17 18 14 11 13 14 13 12 10 8 9 8 7 7 7 6 5 5 5 5 6 7 6 6 7 7
9 9 8 10 8 8 10 11 17 16 22 14 -6 -0 -5 -10 9 7 -2 -4 -9 -2 3 2 4 3 1 1 2 5 13 4 -8 1 11 12 11 10 4 4 7 2 0 15 21 3 11 20 7 9 6 7 10 9 11 11 12 10 13 13 7 7 6 6 9 19 20 11 13 12 8 10 14 14 14 16 17 15 12 9 9 10 8 6 5 5 6 6 7 7 7 7 7 7 7 6 6
9 7 8 10 6 11 10 14 19 13 17 3 -14 2 -3 -9 14 11 1 2 -3 2 9 2 -3 2 -2 -2 12 8 4 3 -2 5 10 11 10 12 9 5 5 7 7 2 14 19 17 21 14 11 7 7 8 7 10 7 9 9 10 11 10 10 9 7 6 19 30 20 7 3 4 4 5 6 7 5 5 2 -1 1 4 5 4 4 6 7 7 8 9 8 8 8 8 8 7 6 6
8 4 10 9 8 13 12 21 15 1 -3 -9 6 1 -15 3 10 2 4 5 4 2 5 11 7 7 6 9 18 5 3 9 5 8 9 13 9 6 10 9 8 11 15 -1 9 32 16 7 12 9 6 5 4 4 6 6 6 5 5 5 8 11 10 7 1 5 24 34 20 4 1 2 1 -3 -2 -1 -1 0 3 9 9 8 7 8 8 8 8 7 7 7 7 6 7 7 6 6 6
7 5 9 9 11 10 8 19 5 -4 -12 -20 16 2 -20 12 10 2 7 2 4 1 1 13 10 8 20 23 12 4 12 13 1 -2 6 13 2 -1 5 3 3 3 9 3 8 30 15 6 13 6 3 1 1 3 1 4 4 3 5 4 4 6 9 9 7 1 5 25 36 28 10 1 4 3 4 6 4 5 7 9 7 6 6 6 5 5 5 5 6 6 6 6 6 6 6 7 7
6 6 8 8 10 9 7 16 13 6 -9 -18 10 7 -5 6 1 3 7 7 4 1 6 12 18 18 20 18 6 5 8 4 -0 -1 4 9 4 3 5 -1 1 10 23 24 13 14 16 18 16 4 4 5 2 5 3 4 5 5 6 6 7 6 7 10 13 11 4 5 20 38 34 17 13 16 17 10 6 8 9 9 7 8 7 7 6 7 7 6 6 5 5 5 5 5 6 6 7
6 6 6 9 6 11 15 24 24 -7 -14 4 6 0 5 2 -3 3 2 6 5 5 6 2 19 22 10 9 3 1 1 0 1 2 2 2 6 5 5 3 3 11 21 42 33 7 25 33 11 4 7 7 6 6 5 4 5 5 6 5 7 6 5 7 8 10 10 6 2 14 30 29 16 11 10 6 8 11 9 9 8 8 8 8 7 7 8 8 7 6 6 6 5 5 5 6 7
6 5 5 8 5 12 21 27 12 -17 2 18 -2 -2 6 7 6 4 3 5 9 11 4 0 13 13 6 8 5 5 5 4 2 1 4 3 6 5 5 7 6 7 -2 42 68 25 34 36 1 7 11 7 9 5 4 4 5 5 6 6 5 5 4 5 6 6 7 8 6 3 10 19 19 12 4 2 3 3 3 3 2 1 3 5 6 7 8 9 9 8 8 7 7 7 6 6 7
5 6 5 4 8 13 19 20 -10 -14 22 2 -15 7 2 6 9 1 6 5 7 6 0 4 6 4 8 9 6 7 3 2 4 1 2 2 6 6 7 6 7 17 -4 20 75 49 30 18 -6 10 12 6 7 3 5 4 6 6 5 6 4 5 4 5 5 5 4 2 5 6 4 6 12 15 13 11 7 4 4 3 2 1 1 3 5 5 7 8 9 9 9 8 8 6 7 6 6
4 5 6 4 10 11 13 14 -13 -6 23 -8 -17 6 -2 3 5 -1 4 0 3 2 2 6 2 6 8 3 -1 -0 2 2 3 0 3 3 6 7 8 13 6 18 5 -7 41 46 16 3 4 17 9 4 3 0 4 3 6 7 7 8 6 5 4 4 4 3 4 3 3 4 5 3 3 5 9 14 14 11 8 5 7 7 6 5 4 3 3 6 8 9 9 9 9 8 7 6 6
4 4 8 5 8 18 25 10 -8 6 13 -3 -4 2 1 4 3 4 4 1 3 1 7 5 4 14 6 1 4 3 4 3 3 2 5 3 5 8 8 16 11 17 19 2 23 29 8 8 12 13 7 3 3 -0 -0 0 3 4 6 7 6 7 5 4 4 4 4 4 4 2 2 4 4 4 5 7 7 9 8 6 7 9 9 7 6 5 3 4 7 7 7 7 7 9 9 8 8
4 7 5 6 17 20 18 -5 -5 19 -3 -13 8 9 5 1 5 9 4 5 4 3 8 5 12 21 10 5 7 10 12 9 13 8 6 6 4 11 9 12 15 14 21 28 37 28 14 18 16 12 10 7 6 4 3 1 0 1 4 5 5 6 6 7 5 5 6 5 5 5 3 2 3 4 6 6 5 7 8 5 3 5 5 5 6 6 5 5 7 6 8 8 6 7 7 8 8
3 10 1 6 27 14 1 -11 -5 18 -6 -17 6 13 3 -6 5 11 6 5 3 7 5 5 14 6 -5 -1 1 7 12 8 13 12 9 10 6 10 12 10 9 9 24 32 30 28 25 21 17 13 11 13 12 10 9 6 3 2 1 2 4 5 5 5 5 5 5 6 6 7 6 6 5 4 4 4 5 5 6 7 6 6 3 2 4 5 5 3 3 4 7 9 9 9 7 6 6
3 11 6 5 17 6 0 -5 -11 -2 -3 -7 -2 8 5 -5 3 6 5 4 -2 0 1 8 10 -12 -16 5 8 1 1 -0 4 7 6 9 11 11 14 15 8 9 23 9 -13 6 24 18 13 12 13 18 19 16 15 16 13 12 10 7 4 4 6 6 6 7 6 6 6 6 7 9 9 8 9 8 7 4 5 10 11 11 9 5 5 5 5 3 1 1 2 4 6 9 9 8 7
5 7 7 12 13 3 0 1 -3 -11 -6 1 -4 2 7 3 6 4 4 6 2 -4 3 21 13 -2 4 14 13 6 5 7 7 8 8 10 9 7 13 19 15 14 25 13 -8 0 13 14 14 13 12 9 7 8 12 13 5 5 12 13 11 6 5 7 8 9 8 9 8 7 7 7 9 9 9 13 15 8 2 5 9 14 15 12 11 9 7 3 2 2 2 3 4 6 7 8 8
13 9 4 17 16 -0 -1 8 7 -7 -4 6 2 4 6 4 3 4 4 4 9 5 14 28 9 5 21 18 11 11 12 10 8 7 9 9 7 10 13 13 10 10 19 21 18 21 18 13 7 1 1 0 -0 -0 4 3 -7 -3 7 14 20 14 9 10 11 11 11 12 12 11 10 8 9 9 6 9 18 16 5 4 10 13 8 5 8 12 14 9 5 4 4 6 6 6 6 6 6
15 14 9 22 13 -9 -1 10 2 -6 2 3 2 6 2 2 2 6 6 3 10 4 5 10 -2 6 21 16 9 8 11 11 11 8 6 8 12 15 11 7 4 2 7 11 19 31 20 1 -1 4 7 12 13 10 12 11 7 9 8 8 10 5 3 6 7 9 8 10 12 12 13 13 12 12 8 6 10 13 8 5 8 8 5 7 10 9 5 2 5 7 6 6 5 5 6 8 7
10 12 14 25 9 -6 6 6 -6 -5 5 0 -1 5 1 2 3 9 9 3 9 8 2 -7 -10 1 -2 -5 -0 0 5 10 10 8 4 2 5 9 9 6 -2 -5 4 10 17 26 18 1 3 8 6 11 14 15 15 13 12 11 8 8 4 -1 -2 -0 2 4 4 6 7 6 8 11 11 9 9 8 8 9 8 6 6 6 7 13 17 13 2 -4 2 7 8 7 6 5 5 7 7
8 6 10 18 1 2 15 1 -13 -6 6 2 -5 1 4 0 -5 3 8 2 5 16 18 4 1 6 -2 -4 -2 -1 6 8 7 7 6 3 3 8 7 -4 -13 -4 8 11 14 14 13 11 8 3 -2 -1 1 5 5 2 1 4 13 15 9 9 7 5 4 1 2 4 4 4 2 1 -1 -3 -3 1 4 5 5 5 6 8 7 5 6 12 15 15 11 4 2 4 7 10 6 5 7
8 -0 1 7 -7 4 21 2 -16 -9 7 7 -5 -3 4 2 -3 1 6 5 4 6 14 17 15 11 8 8 3 4 7 4 5 7 7 7 5 4 -1 -9 -7 6 12 11 11 -1 -8 -1 6 5 -0 -6 -6 -2 -4 -9 -12 -10 -0 -3 -8 -0 -1 -4 0 -0 -0 1 3 5 5 3 -2 -5 -4 -2 1 2 3 3 3 5 8 8 4 4 9 17 19 13 6 1 1 5 4 2 4
6 2 3 10 -5 -1 19 10 -10 -13 2 10 -0 -4 0 1 -0 3 7 6 -3 -10 -1 11 13 9 10 12 12 14 9 4 6 5 7 8 6 5 2 1 4 8 10 12 11 -1 -11 -3 9 10 5 0 -1 2 1 -1 -3 -4 -3 -7 -9 -5 -9 -13 -2 7 8 7 7 4 5 6 4 2 1 1 2 2 3 4 4 4 4 5 7 9 7 6 9 14 15 12 7 3 2 1 1
10 6 4 15 2 -9 11 19 7 -6 -6 5 5 -3 -0 3 -2 -0 6 7 -0 -7 -4 -1 1 5 7 9 9 6 6 8 9 6 7 7 5 6 6 7 8 9 11 11 10 6 1 5 12 13 10 6 1 1 4 6 6 6 5 5 4 4 2 0 6 13 12 12 11 8 6 4 4 5 3 2 3 3 3 3 4 3 1 -0 -0 4 8 6 2 3 7 13 15 12 8 5 4
15 8 -3 7 2 -12 3 17 14 4 -4 3 10 2 -1 4 1 -3 -3 0 1 -1 2 5 7 7 7 10 7 3 7 8 7 8 6 6 6 7 10 13 15 15 14 11 10 9 8 8 8 8 9 9 7 4 4 6 7 8 8 8 8 8 9 11 12 12 11 11 10 10 9 6 6 6 5 5 4 4 4 4 4 1 0 1 1 1 3 7 7 4 2 3 8 12 13 9 7
21 18 5 7 3 -11 -3 14 18 11 3 3 5 6 3 3 14 24 17 8 7 7 9 13 15 14 13 13 10 8 12 9 8 10 9 11 11 9 12 11 11 11 10 9 9 9 10 10 7 7 8 9 10 9 7 8 9 9 9 8 9 9 10 11 11 10 9 9 8 8 8 7 7 7 7 7 6 6 5 4 4 4 4 4 4 4 3 4 6 6 5 3 2 5 10 11 9
16 14 10 10 8 -4 -9 5 17 15 15 12 4 7 7 -1 3 13 13 10 15 18 18 19 19 18 14 11 10 10 9 8 8 10 11 11 9 9 9 7 5 5 6 7 7 8 9 9 10 11 12 11 11 11 11 10 9 9 9 9 8 8 8 8 8 8 8 8 8 8 7 6 6 6 7 8 8 8 7 6 4 4 5 5 5 4 5 5 5 5 5 5 4 3 5 9 10
8 5 4 3 4 1 -6 -7 0 8 19 19 8 9 12 3 -4 -4 -0 6 11 12 10 13 13 11 11 10 9 8 7 7 8 10 12 11 11 12 10 9 9 7 7 9 10 12 12 11 11 11 11 12 11 10 10 8 8 8 8 8 7 6 5 5 6 6 7 7 6 6 6 7 6 6 6 7 9 9 10 9 7 5 4 4 5 5 5 4 4 5 5 6 6 5 5 6 8
12 8 3 6 5 -3 -3 -1 -3 2 12 16 8 5 10 9 6 7 6 4 5 5 2 -1 -5 -5 1 5 6 7 7 6 5 8 11 13 16 14 11 12 12 11 11 12 13 12 12 11 9 9 8 8 9 9 9 9 8 7 8 8 6 5 5 6 7 6 7 6 5 5 4 4 4 5 5 6 6 6 8 9 9 8 6 4 4 5 5 4 4 4 4 5 5 6 6 5 5
21 17 11 18 21 5 1 1 -0 4 7 13 14 9 11 11 7 8 7 6 8 9 8 6 1 -1 2 5 7 7 6 7 9 11 13 15 14 11 12 13 13 15 14 12 12 9 9 9 8 8 8 8 9 8 8 9 8 7 7 7 7 7 7 7 8 8 8 8 7 6 5 4 4 4 5 4 3 3 4 6 8 9 9 7 4 4 4 4 4 3 3 5 5 6 6 5 4
24 25 23 20 15 6 9 11 6 8 6 5 9 8 7 6 4 5 5 6 7 9 12 12 6 6 12 12 6 2 4 12 16 14 13 13 12 13 13 12 11 10 10 10 9 9 9 9 9 9 8 9 9 8 9 9 9 8 8 8 8 9 9 9 9 9 9 10 9 9 8 7 7 7 7 6 5 7 5 4 5 8 9 8 6 5 5 4 4 3 3 3 4 6 6 6 5
18 24 31 31 20 2 -3 1 -5 -5 4 4 6 9 6 7 9 8 10 13 16 18 18 17 17 16 12 4 0 3 5 12 15 11 10 10 10 10 7 6 7 6 7 8 8 8 7 7 8 8 8 8 7 7 8 8 8 8 8 8 8 8 9 9 9 10 9 9 9 10 10 9 8 8 7 6 7 8 8 8 7 6 7 8 7 5 5 5 4 4 4 3 4 5 6 6 5
7 13 28 38 36 21 -0 -6 -3 2 10 6 5 11 8 8 12 17 26 28 26 28 27 23 20 16 9 4 8 13 13 13 11 8 7 7 5 2 2 3 5 7 7 6 6 5 6 6 6 7 7 7 7 7 7 7 7 7 7 7 7 7 6 7 7 9 10 10 10 10 10 10 10 9 8 8 7 7 7 8 9 10 9 7 5 5 5 6 5 4 4 3 4 4 4 5 5
7 8 33 43 35 34 24 10 16 23 19 12 13 16 7 5 12 22 30 23 16 23 26 16 2 2 12 18 16 11 9 8 4 4 5 4 3 2 4 6 7 8 8 7 7 6 5 6 6 7 8 7 7 8 8 9 7 6 8 8 8 6 5 5 6 7 9 9 9 8 8 9 9 10 11 11 10 10 10 9 9 11 10 8 7 7 6 5 5 7 6 4 4 4 4 4 4
7 -0 19 37 33 32 26 11 12 16 12 8 12 15 11 12 14 16 19 17 15 21 26 23 14 19 28 22 14 7 4 3 1 5 6 3 5 5 5 6 7 8 8 8 7 7 7 8 8 9 8 8 7 7 8 10 8 7 8 9 9 7 5 5 4 4 5 5 5 5 7 8 9 9 9 11 12 11 12 12 11 11 12 11 9 7 6 4 2 4 7 5 4 4 3 3 3
4 1 1 18 28 23 18 15 14 15 17 17 19 21 17 19 17 8 7 11 12 10 13 14 10 17 20 6 2 7 5 4 6 8 8 6 5 5 5 6 7 7 7 8 6 6 8 8 9 9 9 9 6 7 9 10 11 10 10 10 9 9 8 7 6 5 5 5 5 5 6 9 11 11 9 9 10 10 11 11 11 12 14 15 15 10 6 5 4 3 4 5 6 6 4 3 3
7 5 6 14 14 7 13 17 12 14 21 21 23 23 12 8 8 2 3 9 10 7 6 7 2 6 9 -1 -2 7 7 7 8 7 6 6 5 4 6 6 7 8 7 6 5 5 6 6 7 8 8 8 7 9 12 13 15 13 11 10 9 11 11 10 10 10 10 12 12 12 12 13 12 12 12 11 10 10 11 12 11 12 13 14 17 17 11 6 5 5 5 4 4 7 7 4 3
11 3 9 15 3 -1 12 8 1 8 16 13 9 11 12 8 2 0 2 3 3 4 5 7 4 3 5 3 2 7 15 14 8 8 6 4 6 7 8 8 8 9 8 6 7 6 6 6 7 9 10 10 10 11 13 14 13 11 11 11 10 10 10 11 12 12 13 15 17 16 13 13 13 12 13 14 14 13 13 14 14 13 14 14 15 18 19 14 6 4 6 5 3 4 7 7 5
8 4 2 7 3 3 9 3 -1 5 13 15 5 2 11 12 7 8 5 -1 -1 5 9 7 4 4 3 4 2 3 21 24 10 9 8 3 7 7 5 8 8 8 7 7 9 8 6 6 8 10 11 11 10 10 11 10 9 9 9 8 8 9 11 13 13 12 11 10 11 12 10 10 11 11 10 10 11 10 9 9 10 9 10 12 14 16 20 20 14 8 7 8 7 5 4 6 7
8 11 3 4 9 7 4 -0 -1 2 7 12 6 4 11 9 6 7 7 6 5 4 5 4 4 4 3 6 5 -0 16 27 11 3 5 3 5 6 5 5 5 6 6 8 12 12 10 9 9 10 10 10 9 8 8 7 7 8 6 6 6 8 10 11 11 9 8 8 8 10 12 10 8 7 5 3 4 6 7 7 8 9 7 6 9 12 15 19 19 15 10 9 9 8 5 4 6
5 10 8 4 6 7 4 1 -2 1 8 10 8 9 8 3 1 4 9 11 6 1 6 9 5 4 6 10 8 -1 7 22 15 3 5 8 6 4 4 5 6 7 7 8 12 14 13 11 10 9 9 8 8 7 7 7 7 6 5 6 8 8 8 8 8 7 7 10 13 13 12 9 6 4 1 1 0 2 6 10 12 13 11 7 5 7 12 15 18 19 16 12 12 11 7 4 4
3 7 9 3 2 6 8 10 7 6 11 10 5 5 4 7 12 12 11 7 1 1 8 11 7 7 11 7 5 6 9 16 17 9 6 5 1 -3 -3 1 8 12 11 11 11 12 12 9 6 6 6 7 6 6 6 5 5 5 5 6 7 7 6 6 6 6 7 9 12 14 11 7 5 3 0 0 1 1 4 12 18 17 14 12 8 5 7 10 14 17 18 16 16 13 10 6 6
6 11 10 4 5 7 7 12 12 9 9 6 5 7 6 9 12 8 5 2 2 7 10 11 11 12 12 8 7 12 13 15 18 14 8 4 2 2 1 3 10 15 14 12 9 8 8 6 6 6 6 6 5 6 6 5 5 5 6 5 6 6 6 6 6 6 7 7 9 12 9 6 4 2 -0 -1 1 2 5 14 21 20 17 16 13 7 4 6 10 13 16 17 15 14 13 11 11
6 11 11 9 8 7 5 8 10 9 7 6 7 8 6 6 5 4 8 8 6 8 8 9 11 11 10 10 9 9 13 18 19 15 13 10 6 8 8 8 13 18 19 14 9 6 6 7 8 6 6 6 6 6 6 6 6 6 6 6 6 7 7 8 7 7 8 7 7 8 8 6 4 3 2 2 3 3 8 17 21 19 18 17 16 13 8 5 6 9 14 17 15 14 15 13 11
5 5 10 14 9 5 6 7 5 4 4 5 5 6 8 10 10 11 14 10 4 5 7 6 9 9 8 11 8 5 10 16 18 18 16 13 10 9 9 10 15 20 20 16 13 9 6 7 7 5 6 7 7 7 7 7 7 7 8 8 8 8 8 9 9 9 9 9 8 8 8 6 5 5 3 4 5 4 11 19 19 17 19 18 17 18 15 8 4 7 10 16 17 16 17 16 13
5 4 10 11 6 5 9 9 5 1 3 7 9 10 8 7 12 16 13 5 2 7 8 5 6 6 6 10 8 4 3 6 16 21 16 13 14 12 14 19 21 16 11 11 12 12 11 9 8 8 9 10 10 10 9 9 9 8 8 9 9 9 9 9 9 9 10 10 10 10 9 7 6 6 4 5 6 6 14 19 16 16 18 19 19 21 20 12 6 5 5 9 14 16 17 16 16
7 6 10 11 9 7 4 5 6 6 8 9 10 9 7 8 11 11 8 6 8 10 7 3 5 4 4 9 9 7 3 2 10 15 10 10 13 15 20 27 27 17 9 9 11 12 13 12 12 12 13 13 13 12 11 11 11 11 11 11 12 12 12 11 11 11 11 10 11 12 11 9 7 7 6 8 7 9 15 15 12 12 14 17 19 19 19 15 9 6 4 6 9 14 18 16 15
10 8 8 6 9 12 9 7 10 9 8 9 8 5 5 8 7 4 7 9 7 7 6 3 4 4 4 7 8 8 8 5 7 8 6 7 10 14 18 22 24 18 12 12 13 14 14 13 15 14 13 13 12 12 13 12 13 13 14 15 15 14 14 13 12 12 11 10 10 13 13 11 9 10 9 9 8 12 16 13 10 11 12 13 13 13 14 14 13 11 11 13 13 14 17 19 17
9 11 11 5 5 10 9 6 6 5 5 6 7 6 7 8 6 6 9 7 3 4 6 5 5 3 3 6 7 8 9 8 6 6 8 8 8 11 14 16 17 15 13 14 15 14 12 12 13 12 12 12 12 12 13 13 14 15 15 16 16 15 15 14 13 13 11 10 9 12 14 12 11 12 11 10 11 14 14 11 9 10 11 11 10 10 11 11 12 13 14 17 20 18 14 17 19
4 6 9 8 8 10 8 5 6 8 8 6 3 6 10 9 7 8 7 6 6 3 1 4 6 3 0 4 6 6 7 7 5 7 8 9 8 8 12 15 13 10 11 12 12 12 12 13 13 12 13 13 12 12 13 12 12 13 14 15 15 16 16 16 15 13 12 11 11 12 12 11 13 13 11 10 13 15 13 9 8 9 11 12 13 14 14 14 13 13 15 17 21 24 17 15 17
5 3 3 4 5 6 8 9 7 7 9 6 2 5 8 6 7 9 6 4 5 5 3 5 7 5 1 2 6 7 8 7 7 8 7 8 10 10 12 15 12 9 9 10 10 10 10 11 11 11 12 12 11 11 10 10 10 10 11 13 14 15 17 18 18 17 16 15 14 14 13 13 15 14 12 12 13 15 13 10 8 8 10 12 14 16 18 18 17 17 19 18 18 23 21 16 14
7 5 6 6 4 2 4 7 6 6 6 4 3 5 4 3 4 5 3 3 6 7 6 6 8 6 0 1 4 5 7 8 8 9 7 7 9 10 11 13 12 10 10 10 10 10 10 10 10 11 10 10 10 9 9 8 8 10 11 13 14 14 17 20 20 19 19 18 17 15 14 16 16 16 14 13 14 16 15 12 9 8 10 10 10 12 12 13 15 17 20 21 19 21 22 18 12
8 6 4 5 5 4 4 4 4 5 4 4 5 6 5 4 3 3 3 4 6 6 5 6 8 4 0 2 5 6 7 7 7 8 7 7 9 9 8 10 12 11 10 11 11 13 14 12 11 12 12 12 10 9 9 9 9 10 12 13 13 13 17 22 23 21 19 17 17 16 16 17 16 15 13 13 15 16 15 12 10 8 8 8 7 7 7 7 8 10 12 15 17 19 22 22 18
8 7 4 3 4 4 4 5 5 3 4 6 7 5 4 4 3 4 4 4 5 5 5 6 5 3 4 7 8 7 4 4 6 7 7 6 7 7 7 10 13 11 8 10 10 10 13 12 10 11 13 14 12 10 10 11 11 12 13 14 14 13 15 18 22 24 22 18 15 13 13 14 15 14 13 13 12 12 12 11 10 8 7 7 7 5 5 5 5 6 8 10 12 15 17 19 20
Height
5832 5833 5833 5834 5834 5834 5834 5836 5837 5837 5838 5839 5841 5842 5843 5843 5844 5845 5845 5846 5845 5840 5838 5838 5839 5840 5839 5838 5838 5839 5840 5840 5842 5843 5841 5841 5842 5840 5837 5834 5833 5832 5834 5836 5838 5840 5843 5845 5846 5847 5847 5848 5848 5848 5848 5848 5849 5849 5849 5849 5850 5850 5850 5851 5851 5851 5852 5852 5853 5853 5854 5855 5856 5857 5858 5858 5858 5858 5859 5860 5861 5861 5861 5861 5861 5861 5860 5860 5860 5860 5860 5860 5860 5861 5861 5861 5860
5831 5831 5832 5832 5832 5832 5833 5835 5836 5836 5836 5839 5840 5841 5842 5843 5843 5844 5844 5845 5843 5837 5836 5838 5839 5840 5840 5839 5839 5840 5840 5840 5841 5842 5841 5841 5842 5842 5840 5835 5833 5831 5830 5834 5836 5839 5841 5842 5844 5844 5845 5845 5846 5846 5847 5847 5847 5848 5848 5849 5849 5849 5849 5849 5849 5850 5850 5851 5851 5852 5853 5854 5855 5855 5856 5857 5857 5857 5858 5859 5860 5860 5860 5860 5860 5860 5860 5860 5860 5860 5860 5860 5860 5860 5860 5860 5859
5829 5830 5830 5831 5831 5832 5832 5833 5834 5834 5836 5839 5840 5840 5841 5842 5842 5842 5841 5841 5839 5834 5835 5837 5838 5841 5841 5842 5842 5842 5842 5841 5841 5841 5841 5841 5840 5840 5840 5837 5834 5829 5829 5833 5835 5837 5838 5840 5841 5842 5842 5843 5843 5844 5845 5845 5846 5847 5847 5848 5848 5848 5848 5848 5848 5849 5849 5849 5850 5850 5851 5852 5853 5854 5855 5855 5856 5856 5857 5858 5859 5859 5859 5859 5859 5859 5859 5860 5860 5860 5860 5860 5860 5860 5860 5859 5859
5827 5828 5829 5829 5830 5830 5831 5832 5833 5834 5836 5839 5840 5840 5841 5841 5840 5838 5836 5836 5835 5834 5835 5836 5838 5839 5840 5841 5841 5841 5842 5842 5841 5841 5841 5840 5839 5839 5839 5838 5834 5831 5832 5833 5834 5836 5836 5837 5838 5839 5840 5841 5842 5843 5843 5844 5845 5845 5846 5846 5847 5847 5847 5848 5848 5848 5849 5849 5849 5849 5850 5850 5851 5852 5853 5854 5854 5855 5856 5857 5857 5858 5858 5858 5858 5858 5859 5859 5859 5859 5859 5859 5859 5859 5859 5859 5858
5826 5827 5828 5828 5828 5829 5830 5831 5833 5834 5836 5838 5839 5840 5840 5840 5839 5836 5833 5834 5833 5835 5836 5836 5838 5839 5839 5840 5841 5841 5841 5841 5841 5840 5839 5838 5838 5837 5838 5837 5834 5834 5834 5832 5832 5833 5835 5835 5837 5838 5839 5840 5841 5842 5843 5844 5844 5845 5845 5846 5846 5846 5846 5846 5847 5847 5848 5849 5849 5849 5849 5849 5849 5850 5851 5852 5853 5854 5855 5856 5856 5856 5857 5857 5857 5858 5858 5858 5859 5859 5859 5859 5859 5859 5859 5858 5858
5825 5825 5826 5827 5827 5828 5829 5830 5832 5834 5835 5837 5838 5839 5839 5839 5838 5834 5832 5834 5833 5835 5836 5837 5838 5839 5839 5839 5840 5841 5840 5840 5840 5839 5838 5838 5837 5835 5835 5836 5834 5835 5834 5832 5831 5831 5833 5834 5835 5837 5838 5839 5840 5841 5842 5843 5844 5844 5844 5844 5845 5845 5845 5845 5845 5846 5847 5848 5848 5849 5848 5848 5849 5849 5850 5851 5852 5852 5853 5854 5855 5855 5856 5856 5857 5857 5858 5858 5858 5858 5858 5859 5858 5858 5858 5857 5857
5824 5824 5825 5825 5826 5827 5828 5830 5832 5834 5835 5835 5837 5838 5838 5837 5835 5833 5832 5834 5834 5835 5836 5837 5837 5838 5839 5839 5839 5840 5840 5840 5840 5839 5838 5838 5837 5835 5835 5835 5834 5835 5835 5834 5832 5832 5832 5833 5834 5835 5837 5838 5839 5840 5841 5842 5843 5843 5843 5843 5844 5844 5844 5845 5845 5845 5846 5846 5847 5848 5849 5849 5849 5849 5849 5850 5851 5852 5852 5853 5854 5854 5855 5855 5856 5857 5857 5857 5858 5858 5858 5858 5858 5858 5857 5856 5856
5823 5823 5824 5824 5825 5826 5827 5830 5831 5833 5834 5835 5835 5836 5836 5834 5831 5832 5832 5832 5834 5835 5836 5836 5837 5838 5837 5837 5838 5838 5839 5840 5839 5838 5837 5837 5837 5835 5834 5834 5834 5834 5835 5834 5833 5833 5832 5831 5832 5834 5835 5837 5838 5839 5840 5841 5841 5842 5842 5842 5843 5843 5844 5844 5844 5844 5845 5846 5846 5847 5848 5849 5849 5849 5849 5850 5851 5851 5852 5852 5853 5853 5854 5855 5855 5856 5857 5857 5857 5857 5857 5858 5857 5857 5856 5856 5855
5822 5822 5823 5823 5824 5825 5827 5829 5830 5832 5833 5834 5834 5833 5834 5830 5828 5831 5832 5832 5834 5835 5836 5836 5836 5837 5836 5835 5836 5837 5838 5839 5838 5837 5836 5836 5835 5835 5834 5834 5834 5834 5834 5832 5832 5831 5831 5830 5831 5833 5834 5835 5836 5837 5838 5839 5840 5840 5841 5841 5842 5843 5843 5844 5844 5843 5844 5844 5845 5846 5847 5848 5848 5848 5849 5849 5850 5851 5851 5852 5852 5852 5853 5854 5855 5856 5856 5857 5857 5857 5857 5857 5857 5857 5856 5855 5854
5822 5821 5822 5823 5823 5825 5827 5828 5829 5831 5832 5832 5831 5830 5831 5828 5828 5831 5832 5833 5833 5834 5835 5835 5835 5836 5835 5834 5834 5836 5837 5837 5836 5835 5835 5834 5834 5834 5834 5834 5832 5831 5830 5829 5829 5828 5828 5829 5830 5831 5832 5833 5834 5835 5835 5836 5837 5838 5839 5840 5841 5842 5843 5843 5843 5843 5843 5844 5845 5845 5846 5847 5848 5848 5848 5849 5849 5850 5851 5851 5851 5852 5853 5854 5855 5856 5856 5857 5857 5857 5857 5857 5857 5856 5856 5855 5854
5821 5821 5822 5823 5824 5825 5825 5826 5828 5830 5831 5830 5827 5826 5827 5827 5828 5830 5830 5831 5832 5833 5834 5834 5834 5834 5834 5833 5834 5836 5836 5835 5834 5833 5833 5833 5833 5833 5833 5831 5829 5827 5826 5825 5826 5826 5827 5827 5828 5829 5830 5831 5831 5832 5833 5834 5836 5837 5838 5839 5840 5842 5842 5843 5843 5843 5844 5844 5844 5844 5845 5846 5847 5848 5848 5848 5848 5849 5850 5851 5851 5852 5853 5853 5854 5855 5856 5856 5856 5856 5856 5857 5857 5856 5856 5855 5855
5820 5821 5822 5822 5823 5824 5824 5825 5827 5829 5829 5826 5825 5824 5826 5827 5827 5828 5828 5830 5831 5832 5833 5832 5832 5832 5832 5832 5834 5835 5834 5833 5832 5832 5832 5832 5832 5832 5830 5828 5826 5824 5821 5820 5822 5824 5825 5826 5827 5828 5829 5830 5831 5832 5833 5834 5835 5836 5838 5839 5840 5842 5842 5843 5843 5843 5844 5844 5843 5843 5844 5845 5845 5846 5847 5847 5848 5849 5850 5851 5852 5852 5852 5853 5853 5854 5855 5855 5856 5856 5856 5856 5856 5856 5856 5855 5855
5820 5820 5821 5822 5823 5824 5825 5826 5828 5828 5826 5824 5824 5825 5827 5828 5828 5828 5828 5829 5830 5831 5831 5831 5831 5830 5831 5831 5833 5833 5832 5832 5831 5831 5831 5831 5830 5829 5828 5826 5825 5822 5819 5818 5819 5821 5823 5824 5827 5828 5829 5830 5831 5833 5834 5835 5836 5837 5838 5839 5840 5841 5841 5842 5842 5843 5843 5843 5843 5843 5843 5844 5845 5845 5846 5846 5847 5849 5850 5850 5851 5851 5851 5852 5853 5853 5854 5854 5855 5855 5855 5855 5855 5855 5855 5855 5855
5819 5820 5821 5822 5823 5825 5826 5826 5827 5825 5823 5823 5824 5825 5827 5828 5828 5828 5829 5829 5829 5829 5829 5829 5830 5830 5830 5830 5831 5832 5831 5831 5830 5831 5830 5830 5829 5828 5827 5826 5824 5822 5820 5818 5816 5819 5821 5823 5826 5828 5830 5831 5832 5833 5834 5835 5836 5837 5839 5839 5840 5840 5840 5841 5842 5842 5843 5843 5843 5843 5843 5844 5845 5846 5846 5847 5848 5848 5849 5849 5849 5849 5850 5850 5851 5852 5852 5853 5853 5853 5854 5854 5854 5854 5854 5854 5854
5818 5820 5821 5822 5824 5825 5826 5825 5824 5821 5819 5821 5822 5824 5826 5827 5827 5828 5828 5828 5828 5828 5828 5828 5828 5829 5829 5829 5830 5830 5830 5830 5830 5831 5830 5829 5828 5827 5826 5826 5825 5823 5823 5819 5815 5818 5821 5822 5826 5827 5828 5830 5831 5833 5834 5835 5837 5838 5839 5839 5840 5840 5840 5840 5841 5841 5842 5842 5843 5843 5843 5843 5844 5845 5846 5846 5847 5848 5848 5849 5848 5848 5849 5849 5850 5850 5851 5851 5852 5852 5852 5853 5853 5853 5853 5853 5853
5817 5820 5821 5823 5824 5825 5825 5824 5821 5818 5818 5819 5819 5821 5824 5826 5826 5827 5826 5827 5827 5826 5827 5827 5827 5828 5828 5828 5829 5829 5829 5829 5829 5830 5829 5828 5826 5825 5824 5825 5826 5825 5824 5823 5821 5822 5823 5824 5826 5827 5828 5829 5830 5832 5834 5835 5837 5838 5838 5839 5839 5840 5840 5840 5840 5840 5841 5842 5843 5843 5843 5843 5843 5844 5845 5845 5846 5847 5848 5848 5848 5848 5848 5848 5849 5849 5849 5850 5850 5850 5851 5851 5851 5851 5851 5851 5852
5817 5819 5821 5823 5823 5823 5823 5821 5819 5816 5816 5817 5817 5819 5822 5823 5824 5825 5825 5825 5825 5825 5825 5826 5826 5827 5827 5827 5827 5827 5828 5828 5829 5829 5828 5826 5825 5824 5824 5824 5825 5825 5825 5825 5825 5825 5825 5825 5826 5827 5828 5829 5830 5832 5833 5835 5836 5837 5838 5839 5839 5840 5840 5840 5840 5840 5841 5842 5842 5843 5843 5843 5843 5844 5844 5845 5846 5846 5847 5847 5847 5847 5847 5847 5847 5848 5848 5848 5848 5849 5849 5849 5849 5849 5849 5849 5850
5816 5818 5820 5822 5822 5822 5820 5819 5816 5813 5813 5814 5815 5817 5819 5821 5822 5822 5822 5822 5823 5823 5823 5824 5824 5825 5826 5826 5826 5826 5826 5827 5828 5828 5827 5826 5825 5824 5824 5824 5825 5825 5825 5825 5825 5824 5825 5825 5826 5827 5828 5829 5830 5832 5833 5834 5834 5836 5837 5838 5839 5840 5840 5840 5840 5840 5841 5841 5842 5843 5843 5843 5844 5844 5844 5845 5845 5846 5846 5846 5846 5846 5846 5846 5846 5846 5847 5847 5847 5848 5848 5848 5848 5847 5847 5848 5848
5815 5817 5819 5820 5820 5820 5817 5815 5813 5810 5810 5812 5813 5815 5816 5818 5819 5820 5821 5820 5820 5821 5821 5822 5823 5824 5824 5825 5825 5825 5825 5826 5827 5827 5826 5824 5824 5824 5824 5825 5825 5825 5825 5825 5825 5824 5824 5824 5826 5827 5828 5829 5830 5830 5831 5831 5832 5834 5835 5837 5838 5839 5840 5840 5841 5841 5841 5841 5842 5842 5842 5843 5843 5844 5844 5844 5845 5845 5845 5845 5845 5846 5846 5845 5845 5846 5846 5846 5846 5847 5847 5847 5847 5847 5846 5846 5846
5814 5816 5818 5818 5819 5818 5815 5812 5810 5808 5809 5810 5810 5812 5814 5815 5816 5817 5819 5819 5819 5820 5820 5821 5822 5822 5823 5824 5824 5824 5824 5825 5825 5825 5825 5823 5823 5823 5823 5824 5825 5825 5825 5826 5826 5826 5825 5825 5826 5827 5828 5829 5829 5829 5830 5831 5832 5833 5834 5835 5837 5838 5839 5840 5840 5840 5841 5841 5841 5842 5842 5842 5842 5843 5843 5843 5843 5844 5844 5844 5844 5845 5845 5845 5845 5845 5845 5846 5846 5846 5846 5846 5846 5846 5846 5846 5845
5813 5815 5816 5817 5817 5815 5812 5810 5809 5808 5808 5809 5808 5810 5812 5813 5814 5815 5817 5818 5818 5819 5820 5820 5821 5822 5822 5823 5823 5823 5823 5824 5824 5825 5824 5824 5823 5823 5823 5823 5824 5824 5825 5826 5826 5827 5827 5827 5827 5827 5828 5829 5829 5829 5830 5831 5832 5833 5833 5834 5835 5836 5838 5839 5840 5840 5841 5841 5841 5841 5841 5842 5842 5842 5842 5842 5842 5842 5842 5843 5843 5843 5844 5844 5844 5844 5845 5845 5846 5846 5845 5845 5845 5844 5845 5845 5845
5811 5813 5814 5815 5815 5813 5810 5808 5808 5808 5807 5808 5807 5808 5810 5810 5812 5813 5815 5816 5817 5818 5819 5820 5821 5822 5821 5821 5822 5823 5823 5823 5824 5824 5824 5824 5824 5824 5824 5824 5824 5824 5825 5825 5826 5827 5828 5828 5828 5828 5829 5829 5829 5829 5830 5830 5831 5832 5833 5834 5834 5835 5836 5837 5838 5839 5840 5841 5841 5841 5841 5841 5841 5841 5841 5841 5841 5841 5841 5841 5842 5842 5843 5843 5843 5844 5844 5845 5845 5845 5844 5843 5843 5843 5843 5843 5843
5808 5810 5812 5813 5812 5810 5808 5806 5807 5807 5807 5807 5806 5807 5808 5809 5809 5811 5813 5815 5815 5817 5818 5819 5820 5821 5820 5820 5821 5822 5822 5822 5823 5823 5823 5824 5824 5824 5825 5825 5825 5825 5825 5825 5826 5827 5828 5828 5828 5828 5828 5829 5829 5829 5829 5829 5830 5830 5832 5833 5834 5835 5836 5836 5837 5838 5839 5840 5840 5840 5840 5840 5840 5840 5840 5840 5840 5840 5840 5841 5841 5841 5842 5842 5842 5842 5843 5843 5843 5843 5843 5842 5841 5841 5842 5842 5842
5805 5807 5809 5811 5811 5808 5805 5805 5806 5806 5806 5806 5806 5806 5806 5807 5807 5809 5811 5813 5813 5815 5816 5817 5818 5819 5819 5819 5820 5821 5821 5821 5821 5822 5822 5823 5824 5824 5825 5825 5825 5825 5825 5825 5826 5827 5828 5828 5828 5828 5828 5828 5828 5828 5828 5828 5828 5829 5831 5832 5833 5835 5835 5836 5837 5837 5838 5838 5839 5839 5839 5839 5839 5839 5839 5839 5839 5839 5839 5840 5840 5840 5840 5840 5840 5841 5841 5841 5841 5841 5841 5840 5840 5840 5840 5840 5840
5803 5804 5806 5808 5807 5804 5803 5804 5804 5804 5805 5805 5805 5805 5805 5805 5806 5807 5809 5811 5812 5813 5815 5815 5816 5816 5817 5817 5818 5819 5820 5820 5821 5821 5821 5822 5822 5823 5823 5823 5824 5824 5825 5825 5826 5827 5828 5828 5828 5828 5827 5827 5827 5827 5827 5827 5828 5829 5830 5831 5832 5833 5834 5835 5836 5836 5837 5837 5838 5838 5838 5838 5838 5838 5838 5838 5838 5838 5839 5839 5839 5839 5838 5838 5838 5838 5838 5839 5839 5839 5839 5838 5839 5839 5839 5838 5838
5801 5802 5802 5804 5804 5801 5801 5803 5803 5803 5804 5804 5804 5803 5803 5804 5805 5805 5807 5809 5811 5812 5813 5813 5814 5814 5815 5815 5816 5817 5818 5819 5819 5819 5820 5820 5821 5821 5821 5821 5822 5823 5824 5825 5825 5826 5827 5827 5827 5826 5826 5826 5827 5827 5827 5827 5827 5828 5829 5830 5831 5832 5833 5834 5835 5835 5835 5835 5836 5836 5836 5836 5836 5836 5836 5836 5836 5837 5837 5837 5837 5837 5837 5836 5836 5836 5836 5836 5836 5836 5836 5836 5837 5837 5837 5836 5836
5799 5801 5801 5802 5802 5800 5800 5802 5801 5801 5802 5802 5803 5802 5802 5803 5804 5805 5806 5808 5810 5810 5811 5812 5812 5812 5812 5813 5814 5815 5816 5817 5817 5818 5818 5818 5818 5819 5819 5819 5819 5820 5821 5822 5823 5824 5824 5824 5824 5824 5824 5825 5825 5826 5826 5827 5827 5827 5828 5829 5830 5831 5832 5832 5833 5833 5834 5834 5833 5834 5834 5834 5834 5833 5833 5833 5834 5834 5835 5835 5835 5835 5834 5834 5834 5834 5834 5834 5834 5834 5834 5834 5834 5834 5834 5834 5834
5798 5800 5800 5801 5802 5800 5799 5800 5800 5799 5800 5801 5802 5801 5800 5801 5803 5803 5804 5806 5808 5809 5809 5810 5810 5810 5810 5811 5812 5813 5814 5815 5815 5816 5816 5816 5816 5816 5816 5817 5817 5817 5818 5819 5819 5820 5821 5821 5821 5822 5822 5823 5823 5824 5825 5826 5826 5826 5826 5827 5827 5828 5829 5829 5830 5830 5831 5831 5831 5831 5831 5831 5831 5831 5831 5830 5830 5831 5832 5832 5832 5832 5832 5832 5832 5832 5832 5831 5831 5831 5832 5831 5831 5832 5832 5832 5832
5796 5798 5798 5799 5801 5800 5798 5798 5797 5798 5799 5800 5800 5800 5799 5800 5801 5802 5802 5804 5806 5807 5807 5807 5808 5809 5808 5808 5810 5811 5811 5813 5813 5814 5814 5814 5814 5814 5814 5814 5815 5815 5815 5815 5816 5817 5818 5819 5819 5820 5820 5821 5822 5823 5823 5824 5824 5824 5824 5824 5825 5825 5826 5827 5827 5827 5828 5828 5828 5828 5828 5828 5828 5829 5829 5828 5828 5828 5828 5829 5829 5829 5829 5829 5829 5829 5829 5829 5829 5829 5829 5829 5829 5829 5829 5829 5830
5795 5796 5796 5798 5799 5799 5798 5796 5795 5795 5796 5797 5798 5798 5798 5799 5800 5800 5799 5800 5802 5804 5805 5805 5805 5806 5806 5805 5807 5808 5809 5810 5811 5812 5812 5812 5812 5812 5812 5812 5813 5813 5813 5814 5814 5815 5816 5817 5817 5818 5819 5820 5820 5821 5821 5822 5822 5822 5822 5822 5822 5823 5823 5824 5824 5824 5824 5825 5825 5825 5826 5826 5826 5826 5826 5826 5826 5826 5825 5825 5826 5826 5826 5826 5827 5827 5827 5827 5826 5826 5826 5826 5826 5826 5826 5827 5827
5793 5794 5795 5796 5797 5797 5797 5795 5793 5793 5794 5794 5795 5795 5796 5797 5798 5797 5797 5798 5800 5802 5803 5803 5803 5804 5804 5804 5804 5805 5807 5808 5809 5810 5810 5810 5811 5811 5811 5811 5811 5812 5813 5813 5814 5814 5815 5815 5816 5817 5817 5818 5818 5819 5819 5819 5819 5819 5819 5819 5819 5820 5820 5821 5822 5822 5821 5821 5822 5822 5823 5823 5823 5823 5823 5823 5824 5824 5824 5823 5823 5823 5823 5824 5824 5824 5824 5824 5824 5824 5824 5823 5823 5823 5824 5824 5825
5792 5793 5793 5794 5796 5795 5795 5794 5793 5792 5791 5791 5792 5793 5793 5795 5794 5794 5796 5797 5799 5801 5801 5801 5802 5802 5802 5802 5802 5803 5804 5805 5806 5807 5808 5809 5809 5809 5809 5810 5810 5811 5811 5812 5812 5813 5813 5814 5814 5814 5815 5815 5816 5816 5816 5817 5816 5816 5816 5817 5817 5817 5818 5818 5819 5819 5819 5818 5819 5819 5819 5820 5820 5820 5820 5820 5820 5821 5821 5821 5821 5820 5820 5820 5821 5821 5821 5821 5821 5820 5820 5821 5821 5821 5821 5821 5822
5791 5792 5791 5792 5795 5794 5793 5793 5792 5791 5790 5791 5791 5791 5791 5792 5791 5791 5794 5796 5798 5800 5799 5799 5800 5800 5800 5801 5801 5801 5802 5803 5803 5805 5806 5806 5807 5807 5807 5808 5809 5809 5810 5810 5811 5811 5811 5811 5812 5812 5812 5813 5813 5814 5814 5814 5814 5814 5814 5814 5814 5814 5815 5815 5816 5816 5816 5816 5816 5815 5816 5816 5817 5817 5817 5817 5817 5817 5817 5818 5818 5818 5818 5817 5817 5818 5818 5818 5818 5817 5817 5818 5818 5818 5818 5819 5819
5789 5790 5789 5790 5792 5792 5791 5792 5791 5789 5789 5790 5790 5790 5790 5790 5790 5790 5792 5795 5797 5799 5799 5798 5798 5798 5799 5799 5800 5800 5800 5801 5802 5803 5803 5804 5805 5805 5806 5806 5807 5807 5808 5808 5808 5809 5809 5809 5809 5809 5810 5810 5810 5811 5811 5812 5812 5812 5812 5812 5812 5812 5812 5812 5812 5813 5813 5813 5813 5813 5812 5812 5813 5813 5814 5813 5813 5813 5813 5814 5815 5815 5815 5815 5814 5814 5814 5814 5814 5814 5814 5815 5815 5816 5816 5816 5816
5786 5786 5786 5787 5788 5790 5790 5790 5790 5788 5787 5788 5789 5790 5790 5789 5789 5790 5791 5793 5796 5797 5798 5798 5796 5797 5797 5796 5797 5799 5799 5800 5800 5801 5801 5802 5803 5804 5804 5805 5805 5805 5805 5805 5806 5806 5806 5806 5807 5807 5807 5807 5807 5808 5808 5809 5809 5809 5809 5809 5809 5809 5809 5809 5809 5810 5810 5810 5810 5810 5809 5809 5809 5809 5810 5809 5809 5809 5809 5810 5810 5811 5812 5812 5811 5811 5811 5810 5810 5811 5811 5812 5813 5813 5813 5813 5813
5784 5785 5785 5785 5786 5788 5788 5788 5789 5787 5786 5786 5788 5789 5789 5789 5789 5789 5790 5791 5793 5794 5796 5796 5795 5796 5797 5795 5795 5797 5798 5798 5799 5799 5800 5801 5802 5802 5803 5803 5803 5803 5803 5803 5803 5803 5803 5804 5804 5804 5804 5805 5805 5805 5805 5806 5806 5806 5806 5806 5806 5805 5805 5805 5806 5806 5806 5806 5806 5806 5806 5806 5805 5805 5805 5805 5805 5805 5805 5805 5806 5806 5807 5808 5808 5808 5807 5807 5807 5807 5808 5808 5809 5810 5810 5810 5809
5783 5783 5783 5783 5784 5785 5786 5787 5788 5788 5787 5786 5786 5787 5787 5787 5787 5787 5788 5789 5791 5792 5793 5794 5794 5795 5795 5794 5794 5795 5795 5796 5797 5798 5799 5799 5800 5801 5801 5801 5801 5801 5801 5801 5801 5801 5801 5801 5801 5802 5802 5802 5802 5802 5803 5803 5803 5803 5803 5802 5802 5802 5802 5802 5802 5802 5803 5803 5803 5803 5803 5802 5801 5801 5800 5801 5801 5801 5801 5801 5801 5802 5803 5804 5804 5804 5804 5804 5803 5803 5804 5804 5805 5806 5806 5806 5805
5782 5782 5780 5779 5781 5783 5785 5787 5788 5788 5787 5785 5785 5785 5785 5786 5786 5786 5787 5788 5789 5790 5791 5793 5794 5794 5794 5793 5793 5794 5794 5794 5795 5795 5796 5797 5798 5798 5798 5798 5799 5799 5800 5800 5799 5799 5799 5799 5799 5799 5799 5800 5800 5800 5800 5800 5799 5799 5799 5799 5798 5798 5798 5798 5798 5798 5799 5799 5800 5800 5799 5799 5798 5798 5797 5797 5797 5797 5797 5797 5797 5797 5798 5799 5799 5799 5800 5800 5799 5799 5800 5800 5801 5802 5802 5802 5801
5782 5781 5780 5779 5780 5782 5784 5786 5787 5787 5786 5785 5784 5784 5784 5785 5785 5786 5786 5787 5788 5789 5790 5792 5793 5793 5793 5794 5794 5793 5793 5793 5793 5794 5795 5795 5795 5795 5796 5796 5797 5797 5798 5798 5798 5797 5797 5797 5797 5796 5796 5796 5796 5796 5796 5796 5796 5795 5795 5795 5795 5795 5795 5795 5795 5795 5795 5795 5795 5796 5796 5796 5795 5794 5794 5793 5793 5793 5792 5792 5792 5792 5793 5794 5795 5795 5795 5795 5795 5795 5795 5796 5796 5797 5797 5797 5797
5783 5782 5781 5781 5781 5783 5784 5785 5786 5786 5785 5784 5784 5784 5783 5784 5784 5785 5785 5786 5788 5789 5790 5792 5793 5793 5793 5794 5794 5794 5793 5792 5792 5793 5793 5793 5793 5794 5794 5794 5795 5795 5795 5795 5795 5795 5795 5794 5794 5794 5793 5793 5793 5793 5793 5792 5792 5792 5792 5792 5792 5792 5791 5792 5792 5791 5791 5791 5791 5791 5791 5792 5791 5791 5790 5789 5789 5789 5788 5788 5788 5788 5788 5789 5790 5790 5790 5791 5791 5791 5791 5792 5792 5792 5793 5793 5793
5783 5783 5783 5783 5783 5784 5785 5785 5786 5786 5785 5785 5784 5784 5783 5783 5783 5784 5785 5786 5787 5789 5791 5792 5793 5793 5794 5794 5794 5794 5793 5793 5793 5793 5793 5793 5793 5793 5793 5793 5793 5792 5792 5792 5792 5791 5791 5791 5790 5790 5790 5790 5789 5789 5789 5789 5789 5789 5789 5789 5788 5788 5788 5788 5788 5788 5788 5788 5787 5787 5787 5787 5787 5787 5786 5786 5786 5785 5785 5785 5784 5784 5784 5784 5784 5785 5785 5785 5786 5786 5787 5788 5788 5788 5789 5789 5790
5783 5783 5784 5784 5784 5784 5784 5785 5786 5785 5785 5785 5785 5785 5784 5783 5783 5784 5785 5786 5786 5788 5789 5791 5792 5792 5793 5794 5795 5795 5794 5793 5793 5793 5793 5793 5792 5792 5791 5791 5791 5790 5789 5788 5788 5787 5787 5787 5786 5786 5785 5785 5785 5784 5784 5785 5785 5785 5785 5785 5785 5785 5785 5785 5784 5784 5784 5784 5784 5783 5783 5783 5783 5783 5783 5783 5783 5782 5782 5782 5781 5781 5780 5779 5779 5780 5780 5780 5781 5781 5781 5782 5783 5783 5784 5785 5786
5783 5783 5783 5784 5783 5783 5784 5784 5784 5784 5785 5786 5786 5786 5786 5786 5785 5784 5785 5785 5785 5786 5787 5788 5789 5790 5791 5792 5793 5794 5793 5792 5792 5791 5791 5791 5790 5790 5789 5789 5789 5787 5786 5785 5784 5784 5783 5783 5782 5781 5781 5780 5780 5780 5780 5780 5780 5781 5781 5782 5782 5782 5782 5782 5781 5781 5781 5781 5780 5780 5780 5779 5780 5780 5780 5780 5780 5779 5779 5779 5778 5777 5776 5776 5775 5775 5775 5776 5776 5776 5776 5777 5777 5778 5778 5779 5780
5782 5783 5783 5783 5782 5782 5783 5783 5783 5783 5784 5785 5786 5786 5786 5786 5786 5785 5784 5783 5783 5784 5784 5785 5786 5786 5787 5789 5790 5792 5792 5791 5790 5789 5788 5788 5788 5787 5787 5786 5786 5785 5784 5783 5782 5781 5780 5779 5779 5778 5777 5776 5776 5776 5776 5776 5777 5777 5778 5778 5778 5778 5778 5778 5778 5778 5777 5777 5777 5776 5776 5776 5776 5776 5776 5776 5776 5776 5776 5775 5775 5774 5773 5772 5771 5771 5771 5771 5771 5771 5771 5771 5772 5772 5772 5773 5774
5783 5783 5782 5782 5782 5782 5782 5782 5782 5783 5784 5785 5785 5785 5785 5785 5785 5785 5784 5783 5782 5783 5783 5782 5783 5783 5784 5785 5787 5787 5788 5788 5788 5787 5786 5786 5786 5784 5784 5783 5782 5782 5781 5780 5779 5778 5777 5777 5776 5775 5774 5773 5773 5773 5773 5773 5774 5774 5774 5774 5774 5774 5774 5774 5774 5774 5774 5773 5773 5773 5772 5772 5772 5772 5773 5773 5773 5772 5772 5772 5771 5770 5769 5768 5767 5767 5767 5767 5767 5767 5766 5766 5767 5768 5768 5769 5769
5782 5782 5782 5782 5782 5782 5782 5782 5783 5783 5784 5784 5784 5784 5784 5784 5784 5784 5783 5782 5780 5781 5781 5780 5780 5781 5782 5782 5783 5783 5783 5784 5784 5784 5783 5782 5782 5781 5780 5780 5779 5778 5778 5777 5776 5775 5775 5774 5774 5773 5772 5771 5770 5770 5770 5770 5771 5771 5771 5771 5771 5771 5771 5771 5770 5770 5770 5769 5769 5769 5768 5768 5768 5769 5769 5769 5768 5768 5768 5767 5766 5765 5764 5763 5763 5763 5763 5763 5763 5763 5762 5762 5763 5764 5764 5764 5765
5782 5782 5782 5781 5782 5782 5783 5783 5783 5783 5784 5784 5783 5783 5784 5784 5784 5783 5782 5781 5779 5779 5779 5779 5779 5779 5780 5780 5781 5781 5780 5780 5780 5779 5778 5778 5778 5777 5777 5776 5775 5775 5774 5773 5772 5772 5772 5772 5771 5770 5770 5769 5768 5768 5767 5767 5767 5767 5767 5767 5767 5767 5767 5767 5767 5766 5766 5765 5765 5765 5765 5765 5765 5765 5765 5765 5764 5764 5763 5762 5761 5760 5759 5759 5759 5759 5759 5759 5759 5759 5759 5759 5760 5760 5760 5760 5761
5781 5782 5781 5782 5782 5782 5782 5782 5783 5783 5783 5783 5783 5784 5784 5784 5783 5782 5781 5781 5780 5778 5778 5778 5778 5778 5779 5779 5779 5779 5778 5777 5776 5775 5774 5774 5774 5774 5773 5772 5772 5771 5771 5770 5769 5769 5769 5768 5768 5768 5767 5766 5766 5765 5764 5764 5764 5764 5764 5764 5764 5764 5764 5764 5763 5763 5763 5762 5761 5761 5761 5761 5761 5761 5761 5760 5760 5760 5759 5758 5757 5756 5755 5754 5754 5755 5756 5755 5755 5755 5756 5756 5756 5756 5755 5756 5757
5781 5781 5781 5781 5782 5782 5782 5782 5782 5782 5782 5782 5782 5783 5783 5782 5782 5782 5781 5781 5780 5778 5778 5778 5778 5777 5777 5777 5777 5776 5776 5775 5774 5772 5771 5771 5771 5771 5769 5768 5768 5768 5767 5767 5767 5767 5766 5766 5765 5764 5764 5763 5763 5762 5761 5761 5760 5760 5760 5760 5760 5760 5760 5760 5760 5759 5759 5758 5758 5757 5757 5757 5757 5756 5756 5756 5756 5756 5755 5754 5753 5752 5751 5750 5750 5751 5751 5751 5751 5752 5752 5753 5753 5752 5752 5752 5753
5780 5780 5780 5781 5781 5781 5781 5781 5781 5781 5781 5781 5781 5781 5781 5781 5781 5781 5780 5780 5779 5778 5778 5777 5776 5775 5775 5775 5774 5774 5774 5773 5772 5771 5770 5768 5768 5767 5765 5764 5764 5764 5764 5764 5764 5764 5764 5763 5762 5761 5761 5760 5760 5759 5758 5757 5757 5757 5757 5756 5756 5756 5756 5755 5755 5755 5754 5754 5753 5753 5753 5753 5752 5752 5752 5752 5752 5752 5751 5750 5749 5748 5747 5747 5747 5747 5747 5747 5747 5748 5748 5748 5748 5748 5749 5749 5749
5780 5780 5780 5780 5780 5780 5780 5780 5780 5780 5780 5779 5779 5779 5779 5779 5779 5779 5779 5779 5778 5777 5776 5775 5774 5774 5773 5773 5773 5773 5772 5772 5771 5769 5767 5766 5765 5763 5762 5761 5761 5761 5760 5761 5761 5761 5761 5760 5760 5759 5758 5757 5756 5756 5755 5754 5753 5753 5753 5752 5752 5752 5751 5751 5750 5750 5750 5749 5749 5749 5748 5748 5748 5748 5748 5748 5748 5747 5747 5746 5745 5744 5744 5744 5744 5744 5743 5743 5744 5744 5744 5744 5744 5744 5744 5745 5745
5780 5780 5780 5780 5780 5780 5779 5779 5779 5779 5779 5778 5778 5778 5778 5778 5778 5778 5778 5778 5777 5776 5775 5775 5774 5774 5774 5773 5772 5772 5771 5770 5769 5767 5765 5764 5763 5762 5760 5759 5759 5758 5757 5757 5758 5758 5757 5757 5757 5756 5755 5754 5753 5752 5751 5750 5749 5749 5749 5748 5747 5747 5747 5746 5746 5745 5745 5745 5744 5744 5744 5744 5744 5744 5744 5744 5743 5744 5743 5743 5742 5741 5741 5741 5740 5740 5740 5740 5740 5739 5739 5739 5739 5739 5739 5740 5741
5780 5780 5780 5780 5779 5779 5779 5779 5778 5778 5778 5778 5778 5777 5777 5777 5777 5777 5777 5777 5777 5777 5776 5775 5775 5775 5774 5773 5772 5771 5769 5768 5767 5766 5764 5763 5762 5761 5759 5758 5757 5756 5755 5754 5754 5754 5753 5753 5753 5753 5751 5750 5750 5749 5748 5747 5746 5745 5745 5744 5744 5743 5742 5742 5741 5741 5741 5740 5740 5740 5741 5740 5740 5740 5740 5740 5740 5740 5740 5739 5739 5738 5738 5737 5737 5737 5737 5736 5736 5735 5735 5734 5734 5734 5735 5735 5736
5780 5780 5780 5780 5779 5779 5779 5778 5778 5778 5777 5777 5776 5776 5776 5776 5776 5777 5777 5776 5776 5776 5775 5774 5773 5773 5773 5772 5771 5769 5768 5766 5765 5765 5763 5762 5761 5760 5759 5757 5756 5755 5753 5752 5752 5751 5751 5750 5750 5750 5749 5747 5747 5746 5745 5744 5743 5742 5742 5741 5740 5739 5739 5738 5737 5737 5737 5736 5736 5737 5737 5736 5736 5736 5736 5736 5737 5737 5736 5736 5736 5736 5735 5735 5734 5734 5733 5733 5732 5731 5731 5730 5729 5730 5730 5731 5732
5779 5779 5779 5779 5779 5779 5779 5778 5778 5778 5777 5776 5775 5775 5775 5775 5775 5775 5775 5774 5774 5774 5774 5773 5772 5771 5771 5770 5769 5768 5767 5766 5764 5764 5763 5761 5760 5759 5757 5756 5755 5753 5752 5751 5751 5750 5749 5748 5748 5747 5746 5745 5744 5743 5743 5742 5741 5740 5739 5738 5737 5736 5735 5734 5734 5733 5733 5733 5733 5733 5733 5733 5733 5733 5733 5733 5733 5733 5733 5733 5733 5733 5732 5732 5731 5731 5730 5730 5729 5728 5728 5727 5726 5726 5726 5727 5728
5779 5778 5778 5778 5778 5778 5778 5777 5777 5777 5776 5776 5775 5774 5774 5774 5774 5774 5773 5772 5772 5772 5772 5772 5771 5770 5769 5769 5768 5767 5766 5765 5764 5763 5762 5760 5759 5757 5756 5755 5754 5752 5750 5750 5749 5748 5748 5746 5745 5745 5744 5743 5742 5741 5740 5739 5738 5738 5736 5735 5734 5733 5732 5731 5730 5730 5730 5730 5730 5730 5730 5730 5730 5730 5730 5730 5730 5730 5730 5730 5730 5730 5730 5730 5729 5728 5728 5727 5727 5726 5725 5724 5723 5723 5723 5723 5724
5778 5777 5777 5777 5777 5777 5776 5776 5775 5775 5775 5774 5773 5773 5773 5773 5772 5772 5771 5771 5771 5771 5771 5770 5770 5769 5768 5768 5767 5766 5765 5764 5763 5762 5761 5759 5758 5756 5755 5754 5753 5751 5749 5748 5748 5747 5746 5745 5743 5743 5742 5741 5740 5739 5738 5737 5736 5735 5734 5733 5732 5731 5730 5729 5728 5728 5727 5727 5727 5727 5727 5727 5727 5727 5727 5727 5727 5728 5728 5728 5728 5728 5728 5727 5727 5726 5726 5725 5725 5724 5723 5722 5721 5720 5720 5720 5720
5777 5777 5776 5776 5775 5775 5775 5774 5774 5774 5773 5772 5771 5771 5771 5771 5771 5771 5770 5770 5769 5769 5769 5769 5768 5768 5767 5766 5766 5765 5764 5763 5762 5761 5760 5758 5756 5755 5754 5753 5752 5750 5748 5747 5746 5745 5744 5743 5742 5741 5740 5740 5738 5737 5736 5736 5735 5734 5732 5731 5730 5729 5728 5727 5726 5725 5725 5725 5725 5725 5725 5725 5725 5725 5725 5725 5725 5725 5725 5726 5726 5726 5725 5725 5724 5724 5724 5723 5723 5722 5721 5720 5719 5719 5718 5718 5718